Regional Weather Roundup
Issued by NWS New Orleans/Baton Rouge, LA

Home | Current Version | Previous Version | Graphics & Text | Print | Product List | Glossary On
Versions: 1 2 3 4 5 6 7 8 9 10 11 12 13 14 15 16 17 18 19 20 21 22 23 24 25 26 27 28 29 30 31 32 33 34 35 36 37 38 39 40 41 42 43 44 45 46 47 48 49 50
463
ASUS44 KLIX 181210
RWRLIX
NEW ORLEANS REGIONAL WEATHER ROUNDUP
NATIONAL WEATHER SERVICE NEW ORLEANS LA
600 AM CST THU DEC 18 2014

NOTE: "FAIR" INDICATES FEW OR NO CLOUDS BELOW 12,000 FEET WITH NO
      SIGNIFICANT WEATHER AND/OR OBSTRUCTIONS TO VISIBILITY.
      SKY/WX - SKY CONDITION AND SIGNIFICANT WEATHER.
      TMP - AIR TEMPERATURE.     DP    - DEWPOINT TEMPERATURE.
      RH  - RELATIVE HUMIDITY.   PRES  - PRESSURE.
      HI  - HEAT INDEX.          WCI   - WIND CHILL INDEX.

*  THESE STATIONS ARE NOT NWS OR FAA STATIONS AND ARE NOT UNDER
   NWS QUALITY CONTROL.

LAZ038-040-048-061>063-065>067-069-181300-
SOUTHEAST LOUISIANA

CITY           SKY/WX    TMP DP  RH WIND       PRES   REMARKS
N.O. AUDUBON     N/A     53  50  89 MISG        N/A
6HR MIN TEMP:  52; 6HR MAX TEMP:  54;

N.O. INTL ARPT MOCLDY    52  47  83 E5        30.16S
6HR MIN TEMP:  48; 6HR MAX TEMP:  52;

N.O. LAKEFRONT PTCLDY    54  48  80 E9        30.17S
6HR MIN TEMP:  53; 6HR MAX TEMP:  56;

N.O. DOWNTOWN*   N/A     54  45  71 NE3       30.17R
6HR MIN TEMP:  54; 6HR MAX TEMP:  55;

SLIDELL        MOCLDY    43  40  89 CALM      30.16F
6HR MIN TEMP:  42; 6HR MAX TEMP:  45;

BATON ROUGE    PTCLDY    47  43  86 E8        30.14F
6HR MIN TEMP:  44; 6HR MAX TEMP:  47;

BOOTHVILLE     PTCLDY    56  52  86 NE6       30.17R
6HR MIN TEMP:  55; 6HR MAX TEMP:  56;

BELLE CHASSE   MOCLDY    46  45  96 NE3       30.16S
6HR MIN TEMP:  45; 6HR MAX TEMP:  51;

BOGALUSA*        N/A     44  41  87 CALM      30.20R
6HR MIN TEMP:  41; 6HR MAX TEMP:  44;

GALLIANO*      MOSUNNY   52  49  91 MISG      30.16R
6HR MIN TEMP:  51; 6HR MAX TEMP:  56;

NEW ROADS*     PTSUNNY   49  43  82 E5        30.14S
6HR MIN TEMP:  44; 6HR MAX TEMP:  49;

GONZALES*      PTSUNNY   48  47  96 CALM      30.15S
6HR MIN TEMP:  43; 6HR MAX TEMP:  48;

HAMMOND*       NOT AVBL
HOUMA*         PTCLDY    46  46 100 E3        30.15S
PORT FOURCHON* MOSUNNY   59  54  82 NE6       30.19R

$$

MSZ070-080>082-181300-
SOUTHERN MISSISSIPPI

CITY           SKY/WX    TMP DP  RH WIND       PRES   REMARKS
MCCOMB         CLOUDY    47  41  80 CALM      30.17R
6HR MIN TEMP:  42; 6HR MAX TEMP:  47;

GULFPORT       PTCLDY    45  40  82 E3        30.18R
6HR MIN TEMP:  44; 6HR MAX TEMP:  48;

BILOXI         PTCLDY    45  41  87 NE6       30.19R
6HR MIN TEMP:  44; 6HR MAX TEMP:  51;

PASCAGOULA     CLEAR     40  38  93 NE5       30.19S
6HR MIN TEMP:  37; 6HR MAX TEMP:  42;


$$

COASTAL OBSERVATIONS
LAKE AND NEARSHORE STATIONS

STATION/POSITION TIME  TEMP    WIND        PRES    WAVE
                       AIR SEA DIR/SP/G            HT/PER
                 (UTC) (F)     (DEG/KT/KT) (MB)    (FT/S)
PASCAGOULA       1200   46      40/  7/ 10 1021.6
WAVELAND YACHT   1200   49      80/  9/ 10 1020.8
GRAND ISLE       1200   58 61   70/  7/  8 1021.5
SOUTHWEST PASS   1200   56                 1021.1
NEW CANAL        1200   53 57   80/  3/  6 1021.5
SHELL BEACH      1200   56 58   60/  9/ 10 1021.1

OFFSHORE STATIONS

STATION/POSITION TIME  TEMP    WIND        PRES    WAVE
                       AIR SEA DIR/SP/G            HT/PER
                 (UTC) (F)     (DEG/KT/KT) (MB)    (FT/S)
64 S DAUPHIN ISL 1200   64 74   70/  4/  8 1020.7    1

$$




USA.gov is the U.S. government's official web portal to all federal, state and local government web resources and services.